Location: Warszawa
(52.2500°N, 21.0000°E)
Time: 10:05:56
(UTC+02:00)

Gurwin Techsat 1B - Pass Details

Date: 01 May 2024
Orbit: 811 x 812 km, 98.9° (Epoch: 20 May)

Event Time Altitude Azimuth Distance (km) Brightness Sun altitude
Rises 02:59:57 0° 26° (NNE) 3,348 13.5 -15.5°
Reaches altitude 10° 03:02:58 10° 43° (NE) 2,411 12.5 -15.2°
Maximum altitude 03:06:48 20° 89° (E) 1,814 10.9 -14.8°
Drops below altitude 10° 03:10:37 10° 135° (SE) 2,398 11.0 -14.5°
Sets 03:13:35 0° 153° (SSE) 3,323 11.6 -14.2°
